Sparrow
1 43881U 18111F   25022.02596039  .00032823  00000-0  14068-2 0  9990
2 43881  97.6170 296.5181 0009103  18.6488 341.5080 15.22652266332642
Prox-1
1 44339U 19036A   25021.99226714  .00020451  00000-0  29191-2 0  9998
2 44339  23.9976 249.0576 0007875 299.4712  60.4999 14.75185670297497
SONATE
1 44400U 19038Q   25022.51946563  .00077940  00000-0  11332-2 0  9992
2 44400  97.7116  35.5047 0012377  47.5575 312.6723 15.55424670307904
Taurus 1
1 44530U 19059C   25022.48808421  .00016073  00000-0  31881-2 0  9996
2 44530  98.5893 155.8243 0009817 103.3138 256.9157 14.62265393283731
Duchifat 3
1 44854U 19089C   25022.40270210  .00051362  00000-0  16160-2 0  9992
2 44854  36.9478 144.1775 0009566 126.7788 233.3843 15.31918764281718
TO-108
1 44881U 19093C   25022.46091772  .00002351  00000-0  28136-3 0  9998
2 44881  97.8077 100.9630 0013239 329.9074  30.1379 14.85027638275579
FloripaSat 1
1 44885U 19093G   25022.47403342  .00011965  00000-0  10793-2 0  9993
2 44885  97.8254 110.0314 0010447 311.5825  48.4500 14.95647512276085
RS-44
1 44909U 19096E   25022.09597098  .00000016  00000-0  27021-4 0  9992
2 44909  82.5247 319.3079 0216323 259.3899  98.2773 12.79737917236976
UPMSat 2
1 46276U 20061E   25022.44279282  .00053252  00000-0  93079-3 0  9991
2 46276  97.2668  94.0231 0001500  73.0781 287.0635 15.50487564243944
AmicalSat
1 46287U 20061R   25010.85863821  .11283921  24654-5  56408-3 0  9994
2 46287  97.2840  89.8720 0009935 281.1985  78.8199 16.41970930241877
SALSAT
1 46495U 20068K   25022.47779611  .00015000  00000-0  71315-3 0  9993
2 46495  97.8449 354.6077 0010391 282.9848  77.0225 15.19257133237538
CubeSX-Sirius-HSE
1 47951U 21022V   25022.47008937  .00082955  00000-0  15361-2 0  9999
2 47951  97.4370 289.0065 0012042  75.5102 284.7484 15.48639132212214
CubeSX-HSE
1 47952U 21022W   25022.45655099  .00089972  00000-0  16466-2 0  9998
2 47952  97.4360 289.1577 0012194  75.3757 284.8845 15.48946077212227
KSU-Cubesat
1 47954U 21022Y   25022.20371547  .00189043  00000-0  20287-2 0  9992
2 47954  97.4353 292.3502 0010744  72.2782 287.9648 15.63115440212121
GRBAlpha
1 47959U 21022AD  25022.48103473  .00084558  00000-0  15535-2 0  9993
2 47959  97.4366 289.3479 0011956  75.4932 284.7644 15.48859803211050
Orbicraft-Zorkiy
1 47960U 21022AE  25022.49268577  .00130903  00000-0  17622-2 0  9998
2 47960  97.4364 292.0909 0011024  72.2574 287.9883 15.57340795211899
TUBIN
1 48900U 21059X   25022.46346409  .00047658  00000-0  98170-3 0  9993
2 48900  97.6635 182.1644 0005325  25.9008 334.2506 15.45764125198601
LEDSAT
1 49069U 21073D   25022.43043689  .00060485  00000-0  14086-2 0  9993
2 49069  97.4091 100.1440 0013105 220.4470 139.5804 15.41982242190029
CUTE
1 49263U 21088D   25022.15012168  .00059662  00000-0  15435-2 0  9996
2 49263  97.4689  94.9871 0009860  30.8529 329.3293 15.38826943183076
TeikyoSat 4
1 49396U 21102B   25022.19133868  .00005384  00000-0  36724-3 0  9992
2 49396  97.4322  65.5475 0011445 245.6361 114.3673 15.06575238175701
Z-Sat
1 49399U 21102E   25022.44039186  .00008542  00000-0  49400-3 0  9995
2 49399  97.4029  68.1154 0017699 218.8153 141.1807 15.12373463176081
KOSEN 1
1 49402U 21102H   25021.86035095  .00013321  00000-0  67183-3 0  9999
2 49402  97.3944  70.0208 0016253 198.8106 161.2529 15.17142624176232
HO-113
1 50466U 21131B   25022.48107639  .00001484  00000-0  48040-3 0  9994
2 50466  98.5166 112.5357 0004243 177.1328 182.9886 14.40470678161566
IRIS-A
1 51044U 22002BN  25022.25357592  .00086414  00000-0  13261-2 0  9997
2 51044  97.3511  96.5733 0003791 332.1640  27.9410 15.53989497168158
Foresail-1
1 52766U 22057AL  25022.34401424  .00078827  00000-0  12183-2 0  9994
2 52766  97.5963 162.3813 0005619  60.0988 300.0823 15.53812388148208
SNUGLITE 2
1 52899U 22065F   25022.32594797  .00003570  00000-0  71347-3 0  9995
2 52899  98.1446 165.8934 0007562 179.3691 180.7522 14.62479865136275
IO-117
1 53106U 22080B   25013.55270770 -.00000003  00000-0  00000+0 0  9994
2 53106  70.1424 119.4379 0008206  58.9554 301.1910  6.42557525 58785
FO-118
1 54684U 22167C   25022.49451956  .00239806  00000-0  19006-2 0  9995
2 54684  97.6114 183.7213 0003184  22.1731 337.9668 15.70572238118152
SO-120
1 56992U 23084BU  25021.87119021  .00419621  00000-0  22589-2 0  9998
2 56992  97.5287 155.3699 0009382 301.4897  58.5452 15.79027268 89949
UmKA 1 (RS40S)
1 57172U 23091G   25022.48616939  .00012275  00000-0  70333-3 0  9990
2 57172  97.5818  78.6792 0016702  90.7216 269.5928 15.12630596 86588
CubeBel-2 (EU11S)
1 57175U 23091K   25022.48274794  .00017378  00000-0  92582-3 0  9991
2 57175  97.5818  79.1328 0014668  99.9925 260.2963 15.15174637 86612
VERONIKA
1 58261U 23174F   25022.47726723  .00071788  00000-0  17037-2 0  9999
2 58261  97.4335 103.6901 0007958 183.3493 176.7701 15.41418978 67230
KAFASAT
1 58317U 23174BP  25022.42382849  .00156063  00000-0  21809-2 0  9995
2 58317  97.4230 106.3234 0004775 160.9548 199.1886 15.56297610 67429
ENSO
1 58470U 23185J   25022.45518313  .00051790  00000-0  13120-2 0  9995
2 58470  97.3957  94.7632 0008627 215.9882 144.0784 15.39520427 63673
EIRSAT-1
1 58472U 23185L   25022.46482361  .00068383  00000-0  15480-2 0  9998
2 58472  97.3950  95.3211 0007863 216.0638 144.0080 15.42855372 63718
SONATE-2
1 59112U 24043Q   25021.87028131  .00024458  00000-0  87701-3 0  9990
2 59112  97.4954 151.1457 0011652 246.2508 113.7509 15.28647274 49098
MO-122
1 60209U 24125G   25022.49948310  .00029372  00000-0  10389-2 0  9996
2 60209  97.2958 236.1714 0020559 273.1967  86.6921 15.28916101 30806
GRBBeta
1 60237U 24128C   25022.49983934  .00008667  00000-0  69000-3 0  9990
2 60237  61.9921 200.2688 0036720  25.0673 335.2189 15.00500326 29469
Curium One
1 60242U 24128H   25022.50453692  .00014346  00000-0  10995-2 0  9990
2 60242  61.9823 200.0685 0036653  18.9207 341.3235 15.01558857 29474
ROBUSTA-3A
1 60243U 24128J   25022.47036619  .00010155  00000-0  79150-3 0  9996
2 60243  61.9889 200.6058 0034817  16.7573 343.4659 15.01220861 29462
CatSat
1 60246U 24125J   25022.29449594  .00019571  00000-0  73613-3 0  9995
2 60246  97.2752 236.4649 0045163 224.6425 135.1174 15.26202208 28864
AO-123
1 61781U 24199AY  25022.50202969  .00016576  00000-0  66223-3 0  9999
2 61781  97.3766 252.0829 0016471 332.2921  27.7438 15.25079324 55810
POEM 4 (BGS ARPIT)
1 62461U 24253C   25022.52939328  .00127736  00000-0  79803-3 0  9993
2 62461  55.2212 146.5409 0007223 343.0790  17.0015 15.76017842  3588
